| time (UTC) | temp C | wind direction | speed KPH | gust KPH | rain 1hr cm | rain 24hr cm | rain mn cm | humidity % | barometer mb |
| 20260504100551 | 2 | 268 | 0.0 | 0.0 | 0.00 | 0.00 | 0.00 | 65 | 1015.2 |
| 20260504100248 | 2 | 268 | 0.0 | 0.0 | 0.00 | 0.00 | 0.00 | 65 | 1015.3 |
| 20260504081911 | 3 | 251 | 0.0 | 1.6 | 0.00 | 0.00 | 0.00 | 62 | 1015.5 |
| 20260504081604 | 3 | 251 | 0.0 | 1.6 | 0.00 | 0.00 | 0.00 | 62 | 1015.7 |
| 20260504081258 | 3 | 248 | 0.0 | 0.0 | 0.00 | 0.00 | 0.00 | 62 | 1015.6 |
| 20260504080948 | 3 | 248 | 0.0 | 0.0 | 0.00 | 0.00 | 0.00 | 62 | 1015.7 |
| 20260504080652 | 3 | 248 | 0.0 | 0.0 | 0.00 | 0.00 | 0.00 | 62 | 1015.6 |
| 20260504060159 | 4 | 264 | 0.0 | 0.0 | 0.00 | 0.00 | 0.00 | 59 | 1015.7 |
| 20260504050105 | 5 | 243 | 0.0 | 0.0 | 0.00 | 0.00 | 0.00 | 56 | 1015.6 |
| 20260504045800 | 5 | 243 | 0.0 | 0.0 | 0.00 | 0.00 | 0.00 | 56 | 1015.7 |
| 20260504045446 | 5 | 243 | 0.0 | 0.0 | 0.00 | 0.00 | 0.00 | 56 | 1015.7 |
| 20260504045137 | 5 | 243 | 0.0 | 0.0 | 0.00 | 0.00 | 0.00 | 56 | 1015.7 |
| 20260504044840 | 5 | 243 | 0.0 | 0.0 | 0.00 | 0.00 | 0.00 | 55 | 1015.8 |
| 20260504044527 | 5 | 243 | 0.0 | 0.0 | 0.00 | 0.00 | 0.00 | 55 | 1015.7 |
| 20260504044221 | 5 | 243 | 0.0 | 0.0 | 0.00 | 0.00 | 0.00 | 55 | 1015.9 |
| 20260504043907 | 5 | 243 | 0.0 | 0.0 | 0.00 | 0.00 | 0.00 | 55 | 1015.8 |
| 20260504043605 | 5 | 243 | 0.0 | 0.0 | 0.00 | 0.00 | 0.00 | 55 | 1015.9 |
| 20260504043258 | 5 | 240 | 0.0 | 0.0 | 0.00 | 0.00 | 0.00 | 55 | 1015.8 |
| 20260504042959 | 5 | 240 | 0.0 | 0.0 | 0.00 | 0.00 | 0.00 | 55 | 1015.8 |
| 20260504042232 | 5 | 240 | 0.0 | 0.0 | 0.00 | 0.00 | 0.00 | 54 | 1015.8 |
| 20260504041929 | 5 | 240 | 0.0 | 0.0 | 0.00 | 0.00 | 0.00 | 54 | 1015.7 |
| 20260504041616 | 5 | 205 | 0.0 | 0.0 | 0.00 | 0.00 | 0.00 | 54 | 1015.8 |
| 20260504041303 | 6 | 163 | 0.0 | 0.0 | 0.00 | 0.00 | 0.00 | 54 | 1015.7 |
| 20260504040553 | 6 | 163 | 0.0 | 0.0 | 0.00 | 0.00 | 0.00 | 54 | 1015.7 |
| 20260504040241 | 6 | 163 | 0.0 | 0.0 | 0.00 | 0.00 | 0.00 | 54 | 1015.8 |
| 20260504035943 | 6 | 163 | 0.0 | 0.0 | 0.00 | 0.00 | 0.00 | 54 | 1015.8 |
| 20260504035639 | 6 | 164 | 0.0 | 0.0 | 0.00 | 0.00 | 0.00 | 53 | 1015.8 |
| 20260504035339 | 6 | 164 | 0.0 | 0.0 | 0.00 | 0.00 | 0.00 | 53 | 1015.9 |
| 20260504035039 | 6 | 160 | 0.0 | 0.0 | 0.00 | 0.00 | 0.00 | 53 | 1015.8 |
| 20260504034735 | 6 | 160 | 0.0 | 0.0 | 0.00 | 0.00 | 0.00 | 53 | 1015.7 |
| 20260504034423 | 6 | 160 | 0.0 | 0.0 | 0.00 | 0.00 | 0.00 | 52 | 1015.8 |
| 20260504034126 | 6 | 150 | 0.0 | 0.0 | 0.00 | 0.00 | 0.00 | 51 | 1015.7 |
| 20260504033813 | 6 | 147 | 0.0 | 0.0 | 0.00 | 0.00 | 0.00 | 52 | 1015.6 |
| 20260504033512 | 6 | 147 | 0.0 | 0.0 | 0.00 | 0.00 | 0.00 | 52 | 1015.7 |
| 20260504033207 | 6 | 147 | 0.0 | 0.0 | 0.00 | 0.00 | 0.00 | 51 | 1015.5 |
| 20260504032449 | 6 | 147 | 0.0 | 0.0 | 0.00 | 0.00 | 0.00 | 51 | 1015.5 |
| 20260504032142 | 6 | 153 | 0.0 | 0.0 | 0.00 | 0.00 | 0.00 | 51 | 1015.4 |
| 20260504031832 | 6 | 261 | 0.0 | 0.0 | 0.00 | 0.00 | 0.00 | 50 | 1015.4 |
| 20260504031114 | 7 | 261 | 0.0 | 0.0 | 0.00 | 0.00 | 0.00 | 51 | 1015.3 |
| 20260504030808 | 7 | 261 | 0.0 | 0.0 | 0.00 | 0.00 | 0.00 | 51 | 1015.3 |
| 20260504030503 | 7 | 261 | 0.0 | 0.0 | 0.00 | 0.00 | 0.00 | 51 | 1015.3 |
| 20260504030154 | 7 | 261 | 0.0 | 0.0 | 0.00 | 0.00 | 0.00 | 51 | 1015.1 |
| 20260504025418 | 7 | 261 | 0.0 | 0.0 | 0.00 | 0.00 | 0.00 | 50 | 1015.1 |
| 20260504024237 | 7 | 261 | 0.0 | 0.0 | 0.00 | 0.00 | 0.00 | 49 | 1015.2 |
| 20260504023938 | 7 | 261 | 0.0 | 0.0 | 0.00 | 0.00 | 0.00 | 49 | 1015.2 |
| 20260504023642 | 7 | 260 | 0.0 | 0.0 | 0.00 | 0.00 | 0.00 | 48 | 1015.2 |
| 20260504022901 | 7 | 260 | 0.0 | 0.0 | 0.00 | 0.00 | 0.00 | 47 | 1015.2 |
| 20260504022151 | 7 | 260 | 0.0 | 0.0 | 0.00 | 0.00 | 0.00 | 47 | 1015.2 |
| 20260504021848 | 7 | 260 | 0.0 | 0.0 | 0.00 | 0.00 | 0.00 | 46 | 1015.1 |
| 20260504021545 | 8 | 260 | 0.0 | 0.0 | 0.00 | 0.00 | 0.00 | 46 | 1015.1 |
| 20260504021240 | 8 | 260 | 0.0 | 0.0 | 0.00 | 0.00 | 0.00 | 45 | 1015.1 |
| 20260504020937 | 8 | 260 | 0.0 | 0.0 | 0.00 | 0.00 | 0.00 | 44 | 1015.1 |
| 20260504020628 | 8 | 260 | 0.0 | 0.0 | 0.00 | 0.00 | 0.00 | 44 | 1015.0 |
| 20260504020326 | 8 | 260 | 0.0 | 0.0 | 0.00 | 0.00 | 0.00 | 44 | 1015.2 |
| 20260504020025 | 8 | 260 | 0.0 | 0.0 | 0.00 | 0.00 | 0.00 | 43 | 1015.1 |
| 20260504015721 | 8 | 260 | 0.0 | 0.0 | 0.00 | 0.00 | 0.00 | 45 | 1015.1 |
| 20260504015414 | 8 | 260 | 0.0 | 0.0 | 0.00 | 0.00 | 0.00 | 44 | 1015.1 |
| 20260504015102 | 8 | 260 | 0.0 | 0.0 | 0.00 | 0.00 | 0.00 | 43 | 1015.2 |
| 20260504014342 | 9 | 260 | 0.0 | 0.0 | 0.00 | 0.00 | 0.00 | 42 | 1015.1 |
| 20260504014031 | 9 | 260 | 0.0 | 0.0 | 0.00 | 0.00 | 0.00 | 41 | 1015.0 |
| 20260504013730 | 9 | 260 | 0.0 | 0.0 | 0.00 | 0.00 | 0.00 | 40 | 1015.0 |
| 20260504013428 | 9 | 260 | 0.0 | 0.0 | 0.00 | 0.00 | 0.00 | 40 | 1015.1 |
| 20260504013115 | 9 | 260 | 0.0 | 0.0 | 0.00 | 0.00 | 0.00 | 41 | 1015.0 |
| 20260504012806 | 10 | 260 | 0.0 | 0.0 | 0.00 | 0.00 | 0.00 | 40 | 1015.2 |
| 20260504012500 | 10 | 260 | 0.0 | 0.0 | 0.00 | 0.00 | 0.00 | 38 | 1015.1 |
| 20260504012148 | 10 | 260 | 0.0 | 0.0 | 0.00 | 0.00 | 0.00 | 38 | 1015.0 |
| 20260504011846 | 10 | 260 | 0.0 | 0.0 | 0.00 | 0.00 | 0.00 | 38 | 1015.0 |
| 20260504011117 | 10 | 260 | 0.0 | 0.0 | 0.00 | 0.00 | 0.00 | 38 | 1015.0 |
| 20260504010352 | 10 | 260 | 0.0 | 0.0 | 0.00 | 0.00 | 0.00 | 37 | 1014.9 |
| 20260504010048 | 11 | 260 | 0.0 | 0.0 | 0.00 | 0.00 | 0.00 | 37 | 1014.9 |
| 20260504005750 | 11 | 260 | 0.0 | 0.0 | 0.00 | 0.00 | 0.00 | 36 | 1014.9 |
| 20260504005029 | 11 | 261 | 0.0 | 0.0 | 0.00 | 0.00 | 0.00 | 36 | 1014.8 |
| 20260504004729 | 11 | 262 | 0.0 | 0.0 | 0.00 | 0.00 | 0.00 | 35 | 1014.7 |
| 20260504004427 | 11 | 262 | 0.0 | 0.0 | 0.00 | 0.00 | 0.00 | 36 | 1014.7 |
| 20260504004117 | 11 | 262 | 0.0 | 0.0 | 0.00 | 0.00 | 0.00 | 34 | 1014.7 |
| 20260504003804 | 12 | 262 | 0.0 | 0.0 | 0.00 | 0.00 | 0.00 | 33 | 1014.7 |
| 20260504003505 | 12 | 262 | 0.0 | 0.0 | 0.00 | 0.00 | 0.00 | 32 | 1014.9 |
| 20260504002732 | 12 | 292 | 0.0 | 0.0 | 0.00 | 0.00 | 0.00 | 31 | 1014.8 |
| 20260504002420 | 12 | 292 | 0.0 | 0.0 | 0.00 | 0.00 | 0.00 | 31 | 1014.7 |
| 20260504001702 | 12 | 317 | 0.0 | 4.8 | 0.00 | 0.00 | 0.00 | 29 | 1014.5 |
| 20260504000938 | 13 | 326 | 0.0 | 1.6 | 0.00 | 0.00 | 0.00 | 28 | 1014.5 |
| 20260504000222 | 13 | 263 | 0.0 | 4.8 | 0.00 | 0.00 | 0.00 | 28 | 1014.5 |
| 20260503235919 | 13 | 292 | 0.0 | 3.2 | 0.00 | 0.00 | 0.00 | 27 | 1014.5 |
| 20260503235158 | 13 | 271 | 0.0 | 12.9 | 0.00 | 0.00 | 0.00 | 27 | 1014.4 |
| 20260503234850 | 13 | 305 | 0.0 | 12.9 | 0.00 | 0.00 | 0.00 | 26 | 1014.4 |
| 20260503234125 | 14 | 273 | 3.2 | 12.9 | 0.00 | 0.00 | 0.00 | 25 | 1014.3 |
| 20260503233823 | 14 | 223 | 3.2 | 12.9 | 0.00 | 0.00 | 0.00 | 26 | 1014.4 |
| 20260503233056 | 14 | 275 | 3.2 | 11.3 | 0.00 | 0.00 | 0.00 | 26 | 1014.1 |
| 20260503232745 | 14 | 281 | 1.6 | 11.3 | 0.00 | 0.00 | 0.00 | 25 | 1014.1 |
| 20260503232025 | 15 | 269 | 3.2 | 11.3 | 0.00 | 0.00 | 0.00 | 24 | 1014.2 |
| 20260503231726 | 15 | 319 | 3.2 | 11.3 | 0.00 | 0.00 | 0.00 | 25 | 1014.1 |
| 20260503230957 | 15 | 321 | 1.6 | 16.1 | 0.00 | 0.00 | 0.00 | 25 | 1014.1 |
| 20260503230655 | 15 | 324 | 1.6 | 16.1 | 0.00 | 0.00 | 0.00 | 24 | 1014.1 |
| 20260503230342 | 15 | 281 | 1.6 | 16.1 | 0.00 | 0.00 | 0.00 | 25 | 1014.1 |
| 20260503230041 | 15 | 270 | 3.2 | 16.1 | 0.00 | 0.00 | 0.00 | 26 | 1014.1 |
| 20260503225736 | 15 | 348 | 3.2 | 16.1 | 0.00 | 0.00 | 0.00 | 23 | 1014.1 |
| 20260503225428 | 15 | 336 | 4.8 | 16.1 | 0.00 | 0.00 | 0.00 | 23 | 1014.1 |
| 20260503225116 | 15 | 291 | 4.8 | 16.1 | 0.00 | 0.00 | 0.00 | 24 | 1014.1 |
| 20260503224814 | 15 | 279 | 4.8 | 16.1 | 0.00 | 0.00 | 0.00 | 22 | 1014.1 |
| 20260503224047 | 15 | 286 | 4.8 | 17.7 | 0.00 | 0.00 | 0.00 | 22 | 1014.1 |
| 20260503223311 | 15 | 277 | 4.8 | 24.1 | 0.00 | 0.00 | 0.00 | 22 | 1014.1 |
| 20260503223001 | 15 | 20 | 6.4 | 24.1 | 0.00 | 0.00 | 0.00 | 24 | 1014.1 |
| 20260503222242 | 15 | 284 | 8.0 | 24.1 | 0.00 | 0.00 | 0.00 | 21 | 1014.2 |
| 20260503221930 | 15 | 290 | 8.0 | 24.1 | 0.00 | 0.00 | 0.00 | 21 | 1014.1 |
| 20260503221618 | 15 | 292 | 6.4 | 24.1 | 0.00 | 0.00 | 0.00 | 21 | 1014.1 |
| 20260503220006 | 15 | 240 | 3.2 | 16.1 | 0.00 | 0.00 | 0.00 | 23 | 1014.1 |
| 20260503215652 | 15 | 305 | 3.2 | 16.1 | 0.00 | 0.00 | 0.00 | 22 | 1014.1 |
| 20260503215348 | 15 | 298 | 3.2 | 17.7 | 0.00 | 0.00 | 0.00 | 23 | 1014.1 |
| 20260503215037 | 15 | 133 | 4.8 | 17.7 | 0.00 | 0.00 | 0.00 | 24 | 1014.2 |
| 20260503214319 | 16 | 278 | 8.0 | 25.7 | 0.00 | 0.00 | 0.00 | 22 | 1014.2 |
| 20260503213544 | 16 | 286 | 8.0 | 25.7 | 0.00 | 0.00 | 0.00 | 23 | 1014.0 |
| 20260503212829 | 16 | 295 | 9.7 | 25.7 | 0.00 | 0.00 | 0.00 | 21 | 1014.1 |
| 20260503212518 | 16 | 269 | 8.0 | 25.7 | 0.00 | 0.00 | 0.00 | 21 | 1014.2 |
| 20260503212216 | 16 | 288 | 6.4 | 20.9 | 0.00 | 0.00 | 0.00 | 23 | 1014.1 |
| 20260503211919 | 16 | 275 | 3.2 | 16.1 | 0.00 | 0.00 | 0.00 | 21 | 1014.0 |
| 20260503211617 | 16 | 305 | 3.2 | 14.5 | 0.00 | 0.00 | 0.00 | 24 | 1014.0 |
| 20260503211321 | 16 | 298 | 4.8 | 24.1 | 0.00 | 0.00 | 0.00 | 23 | 1014.0 |
| 20260503211025 | 16 | 278 | 6.4 | 24.1 | 0.00 | 0.00 | 0.00 | 24 | 1014.0 |
| 20260503210717 | 16 | 305 | 6.4 | 24.1 | 0.00 | 0.00 | 0.00 | 22 | 1014.1 |
| 20260503210411 | 16 | 292 | 6.4 | 24.1 | 0.00 | 0.00 | 0.00 | 21 | 1014.2 |
| 20260503210101 | 16 | 335 | 6.4 | 24.1 | 0.00 | 0.00 | 0.00 | 21 | 1014.1 |
| 20260503205751 | 16 | 290 | 8.0 | 24.1 | 0.00 | 0.00 | 0.00 | 20 | 1014.1 |
| 20260503205443 | 16 | 238 | 8.0 | 22.5 | 0.00 | 0.00 | 0.00 | 21 | 1014.1 |
| 20260503205130 | 16 | 246 | 8.0 | 22.5 | 0.00 | 0.00 | 0.00 | 21 | 1014.2 |
| 20260503204816 | 16 | 247 | 6.4 | 22.5 | 0.00 | 0.00 | 0.00 | 21 | 1014.1 |
| 20260503204514 | 16 | 41 | 8.0 | 22.5 | 0.00 | 0.00 | 0.00 | 22 | 1014.1 |
| 20260503204201 | 16 | 263 | 6.4 | 20.9 | 0.00 | 0.00 | 0.00 | 23 | 1014.2 |
| 20260503203901 | 16 | 260 | 6.4 | 17.7 | 0.00 | 0.00 | 0.00 | 23 | 1014.2 |
| 20260503203558 | 16 | 346 | 6.4 | 24.1 | 0.00 | 0.00 | 0.00 | 22 | 1014.2 |
| 20260503203255 | 16 | 287 | 4.8 | 24.1 | 0.00 | 0.00 | 0.00 | 21 | 1014.2 |
| 20260503202538 | 16 | 310 | 8.0 | 24.1 | 0.00 | 0.00 | 0.00 | 21 | 1014.3 |
| 20260503202234 | 16 | 283 | 9.7 | 24.1 | 0.00 | 0.00 | 0.00 | 21 | 1014.3 |
| 20260503201937 | 17 | 0 | 8.0 | 24.1 | 0.00 | 0.00 | 0.00 | 22 | 1014.3 |
| 20260503201635 | 17 | 279 | 4.8 | 19.3 | 0.00 | 0.00 | 0.00 | 21 | 1014.3 |
| 20260503201327 | 16 | 340 | 3.2 | 27.4 | 0.00 | 0.00 | 0.00 | 26 | 1014.4 |
| 20260503201027 | 16 | 272 | 4.8 | 27.4 | 0.00 | 0.00 | 0.00 | 25 | 1014.2 |
| 20260503200726 | 16 | 319 | 6.4 | 27.4 | 0.00 | 0.00 | 0.00 | 23 | 1014.3 |
| 20260503200414 | 16 | 0 | 6.4 | 29.0 | 0.00 | 0.00 | 0.00 | 22 | 1014.4 |
| 20260503195653 | 16 | 283 | 9.7 | 29.0 | 0.00 | 0.00 | 0.00 | 24 | 1014.4 |
| 20260503195357 | 16 | 311 | 11.3 | 29.0 | 0.00 | 0.00 | 0.00 | 21 | 1014.5 |
| 20260503195046 | 16 | 281 | 11.3 | 29.0 | 0.00 | 0.00 | 0.00 | 23 | 1014.6 |
| 20260503194330 | 16 | 5 | 6.4 | 17.7 | 0.00 | 0.00 | 0.00 | 21 | 1014.4 |
| 20260503194027 | 16 | 204 | 6.4 | 16.1 | 0.00 | 0.00 | 0.00 | 21 | 1014.6 |
| 20260503193728 | 16 | 5 | 6.4 | 25.7 | 0.00 | 0.00 | 0.00 | 26 | 1014.7 |
| 20260503193415 | 16 | 265 | 8.0 | 25.7 | 0.00 | 0.00 | 0.00 | 25 | 1014.8 |
| 20260503193103 | 16 | 5 | 9.7 | 25.7 | 0.00 | 0.00 | 0.00 | 24 | 1014.7 |
| 20260503192753 | 16 | 236 | 9.7 | 25.7 | 0.00 | 0.00 | 0.00 | 22 | 1014.8 |
| 20260503192449 | 16 | 262 | 8.0 | 25.7 | 0.00 | 0.00 | 0.00 | 26 | 1014.8 |
| 20260503192148 | 16 | 17 | 8.0 | 25.7 | 0.00 | 0.00 | 0.00 | 24 | 1014.9 |
| 20260503191843 | 16 | 268 | 8.0 | 24.1 | 0.00 | 0.00 | 0.00 | 22 | 1015.0 |
| 20260503191546 | 16 | 323 | 8.0 | 24.1 | 0.00 | 0.00 | 0.00 | 21 | 1014.9 |
| 20260503191242 | 16 | 246 | 9.7 | 24.1 | 0.00 | 0.00 | 0.00 | 21 | 1014.9 |
| 20260503190936 | 16 | 258 | 9.7 | 24.1 | 0.00 | 0.00 | 0.00 | 22 | 1015.0 |
| 20260503190208 | 16 | 166 | 9.7 | 19.3 | 0.00 | 0.00 | 0.00 | 22 | 1015.0 |
| 20260503185901 | 16 | 0 | 8.0 | 19.3 | 0.00 | 0.00 | 0.00 | 22 | 1015.1 |
| 20260503185558 | 16 | 281 | 6.4 | 19.3 | 0.00 | 0.00 | 0.00 | 23 | 1015.1 |
| 20260503184838 | 16 | 247 | 6.4 | 20.9 | 0.00 | 0.00 | 0.00 | 22 | 1015.3 |
| 20260503184540 | 16 | 302 | 6.4 | 20.9 | 0.00 | 0.00 | 0.00 | 23 | 1015.4 |
| 20260503184231 | 16 | 279 | 8.0 | 20.9 | 0.00 | 0.00 | 0.00 | 21 | 1015.4 |
| 20260503183931 | 16 | 332 | 6.4 | 22.5 | 0.00 | 0.00 | 0.00 | 27 | 1015.5 |
| 20260503183632 | 16 | 288 | 6.4 | 22.5 | 0.00 | 0.00 | 0.00 | 22 | 1015.5 |
| 20260503182914 | 16 | 259 | 9.7 | 25.7 | 0.00 | 0.00 | 0.00 | 22 | 1015.5 |
| 20260503182600 | 16 | 259 | 9.7 | 25.7 | 0.00 | 0.00 | 0.00 | 21 | 1015.5 |
| 20260503182250 | 16 | 314 | 8.0 | 25.7 | 0.00 | 0.00 | 0.00 | 22 | 1015.5 |
| 20260503181946 | 16 | 321 | 8.0 | 25.7 | 0.00 | 0.00 | 0.00 | 24 | 1015.4 |
| 20260503180759 | 15 | 218 | 6.4 | 25.7 | 0.00 | 0.00 | 0.00 | 22 | 1015.5 |
| 20260503180500 | 15 | 266 | 6.4 | 25.7 | 0.00 | 0.00 | 0.00 | 21 | 1015.6 |
| 20260503180153 | 15 | 286 | 4.8 | 30.6 | 0.00 | 0.00 | 0.00 | 26 | 1015.4 |
| 20260503175853 | 15 | 288 | 6.4 | 30.6 | 0.00 | 0.00 | 0.00 | 22 | 1015.5 |
| 20260503175542 | 15 | 277 | 6.4 | 30.6 | 0.00 | 0.00 | 0.00 | 21 | 1015.6 |
| 20260503175244 | 15 | 259 | 8.0 | 30.6 | 0.00 | 0.00 | 0.00 | 23 | 1015.6 |
| 20260503174940 | 15 | 192 | 8.0 | 30.6 | 0.00 | 0.00 | 0.00 | 26 | 1015.6 |
| 20260503174628 | 15 | 306 | 8.0 | 30.6 | 0.00 | 0.00 | 0.00 | 23 | 1015.7 |
| 20260503174316 | 14 | 295 | 8.0 | 30.6 | 0.00 | 0.00 | 0.00 | 26 | 1015.6 |
| 20260503174016 | 14 | 277 | 6.4 | 24.1 | 0.00 | 0.00 | 0.00 | 25 | 1015.6 |
| 20260503173714 | 14 | 226 | 8.0 | 24.1 | 0.00 | 0.00 | 0.00 | 25 | 1015.8 |
| 20260503173402 | 14 | 217 | 9.7 | 24.1 | 0.00 | 0.00 | 0.00 | 24 | 1015.8 |
| 20260503173059 | 13 | 294 | 9.7 | 24.1 | 0.00 | 0.00 | 0.00 | 29 | 1015.8 |
| 20260503172757 | 13 | 291 | 9.7 | 24.1 | 0.00 | 0.00 | 0.00 | 24 | 1015.9 |
| 20260503172043 | 13 | 155 | 4.8 | 22.5 | 0.00 | 0.00 | 0.00 | 26 | 1015.9 |
| 20260503171733 | 13 | 273 | 4.8 | 22.5 | 0.00 | 0.00 | 0.00 | 25 | 1015.9 |
| 20260503171427 | 13 | 0 | 4.8 | 22.5 | 0.00 | 0.00 | 0.00 | 25 | 1015.9 |
| 20260503171131 | 13 | 197 | 4.8 | 27.4 | 0.00 | 0.00 | 0.00 | 28 | 1016.0 |
| 20260503170414 | 13 | 22 | 8.0 | 27.4 | 0.00 | 0.00 | 0.00 | 26 | 1016.1 |
| 20260503140143 | 8 | 346 | 8.0 | 20.9 | 0.00 | 0.03 | 0.00 | 32 | 1017.2 |
| 20260503130534 | 8 | 350 | 8.0 | 19.3 | 0.00 | 0.03 | 0.00 | 35 | 1017.7 |
| 20260503130221 | 8 | 254 | 6.4 | 20.9 | 0.00 | 0.03 | 0.00 | 36 | 1017.7 |
| 20260503120136 | 7 | 254 | 6.4 | 16.1 | 0.00 | 0.03 | 0.00 | 41 | 1017.4 |
| 20260503110634 | 4 | 276 | 4.8 | 14.5 | 0.00 | 0.03 | 0.00 | 51 | 1017.0 |
| 20260503110326 | 4 | 275 | 3.2 | 14.5 | 0.00 | 0.03 | 0.00 | 52 | 1017.0 |